www.pogodaiklimat.ru

Погода и климат >> Архив погоды >> Россия >> Волгоградская область >> Калач-на-Дону


ПОГОДА в Калаче-на-Дону

  • Прогноз погоды в Калаче-на-Дону
  • Монитор погоды в Калаче-на-Дону
  • Климат города

АРХИВ ПОГОДЫ в Калаче-на-Дону

Время (UTC), дата Ветер
(напр.,м/с)
 
Видим.   Явления Облачность Т
(С)
Тd
(С)
f
(%)
Тe
(С)
Тes
(С)
Комфортность P
(гПа)
Po
(гПа)
Тmin
(С)
Tmax
(С)
R
(мм)
S
(см)
03 16.03 штиль 0 10 км 9/0
[Ac trans]
+1.0 -3.3 73 0 0 1015.8 1011.0 +0.1
06 16.03 ЮВ 2 20 км 8/0
[Ac trans]
+4.3 -3.4 57 +2 +4 1015.5 1010.7
09 16.03 Ю 2 20 км 6/0
[Ac trans]
+10.9 -6.6 29 +10 +16 1013.3 1008.7
12 16.03 ЮЗ 2 20 км 9/0
[Ac trans]
+11.4 -7.4 26 +11 +13 1012.0 1007.4
15 16.03 ЮЗ 2 20 км 10/0
[Ac lent]
+8.9 -2.5 45 +8 +8 1012.0 1007.4 +11.6
18 16.03 ЮВ 1 10 км 10/10 600 м
[Sc]
+6.1 -0.5 63 +5 +5 1013.1 1008.4
21 16.03 ЮВ 1 10 км {дождь} 10/10 600 м
[Sc]
+4.7 +1.2 78 +4 +4 1012.7 1008.0
00 17.03 Ю 1 10 км {дождь} 10/10 600 м
[Sc]
+3.8 +1.1 83 +2 +2 1012.8 1008.1
03 17.03 Ю 1 10 км 10/10 600 м
[Sc]
+3.3 +1.4 87 +2 +2 1013.4 1008.6 +3.2 0.0
06 17.03 ЮВ 1 20 км 10/10 600 м
[Sc]
+5.5 +2.4 80 +4 +4 1013.8 1009.1 +3.1
09 17.03 Ю 2 20 км 10/10 600 м
[Sc]
+8.8 +2.5 65 +7 +7 1013.9 1009.3
12 17.03 З 2 20 км 10/10 600 м
[Sc]
+8.6 +1.4 61 +7 +7 1014.1 1009.5
15 17.03 ЮЗ 1 20 км 10/10 600 м
[Sc]
+7.3 +2.6 72 +7 +7 1014.4 1009.7 +9.8
18 17.03 В 1 10 км 10/10 600 м
[Sc]
+4.5 +1.6 81 +3 +3 1014.9 1010.2
21 17.03 штиль 0 10 км 10/10 600 м
[Sc]
+2.7 +0.7 87 +2 +2 1014.9 1010.1
00 18.03 штиль 0 10 км 10/10 600 м
[Sc]
+2.7 +1.1 89 +2 +2 1014.9 1010.1
03 18.03 штиль 0 4000 м 10/10 300 м
[St]
-1.4 -2.6 92 -3 -3 1015.1 1010.3 -1.4
06 18.03 штиль 0 500 м туман ?/? +2.2 +1.4 94 +1 +1 1015.2 1010.4
09 18.03 Ю 2 20 км {туман} 10/8 600 м
[Sc Ci fib]
+11.1 +2.1 54 +10 +12 1014.2 1009.6
12 18.03 Ю 2 20 км {туман} 8/8 600 м
[Cb cap]
+13.0 -0.4 40 +13 +14 1012.7 1008.1
15 18.03 ЮВ 2 20 км 9/8 600 м
[Sc Cc]
+11.1 -0.2 46 +10 +10 1012.2 1007.6 +13.2
18 18.03 Ю 2 10 км 10/10 600 м
[Sc]
+8.2 +1.9 64 +7 +7 1012.3 1007.7
21 18.03 Ю 3 10 км 10/10 600 м
[Sc]
+7.2 +1.8 69 +5 +5 1012.2 1007.6
00 19.03 Ю 3 10 км слабый дождь 10/10 300 м
[Frnb Ns]
+5.3 +4.0 91 +2 +2 1011.6 1006.9
03 19.03 ЮЗ 3 10 км {дождь} 10/10 600 м
[Sc]
+5.0 +3.8 92 +1 +1 1011.3 1006.6 +5.0 3
06 19.03 ЮЗ 3 20 км {дождь} 10/8 600 м
[Sc diur, vesp Cs]
+5.0 +1.3 77 +2 +2 1012.3 1007.6 +4.4
09 19.03 Ю 3 20 км 10/5
[Cb cap Cs]
+9.0 +1.9 61 +7 +10 1011.3 1006.7
12 19.03 ЮВ 3 20 км 10/8 600 м
[Cb cap Cs]
+10.1 +2.2 58 +8 +9 1010.1 1005.5
15 19.03 Ю 2 10 км слабый дождь 10/10 300 м
[Frnb Ns]
+7.3 +4.0 80 +5 +5 1010.4 1005.8 +10.6 0.0
18 19.03 ЮВ 3 10 км {дождь} 10/10 600 м
[Sc]
+5.9 +2.2 77 +3 +3 1010.3 1005.6
21 19.03 Ю 4 10 км 10/10 600 м
[Sc]
+4.9 +1.7 80 +1 +1 1009.6 1004.9
00 20.03 ЮВ 3 10 км 10/10 600 м
[Sc]
+3.8 +1.2 83 0 0 1009.0 1004.3
03 20.03 Ю 2 10 км 10/10 600 м
[Sc]
+3.9 +1.3 83 +1 +1 1008.5 1003.8 +3.6 0.0
06 20.03 ЮВ 4 20 км слабый дождь 10/10 300 м
[Frnb Ns]
+4.9 +3.0 87 +1 +1 1008.9 1004.2
09 20.03 ЮВ 3 20 км {дождь} 10/10 600 м
[Sc]
+7.7 +4.2 78 +5 +5 1009.3 1004.6
12 20.03 ЮВ 3 20 км {дождь} 10/10 600 м
[Sc]
+8.9 +2.9 66 +7 +7 1009.0 1004.4
15 20.03 штиль 0 20 км 10/10 600 м
[Sc]
+8.3 +2.5 67 +8 +8 1009.9 1005.3 +9.5 0.3
18 20.03 штиль 0 10 км 10/10 600 м
[Sc]
+6.4 +2.9 78 +6 +6 1010.7 1006.0
21 20.03 СЗ 1 10 км 10/10 600 м
[Sc]
+6.3 +2.9 79 +5 +5 1010.4 1005.7
00 21.03 СЗ 1 10 км 10/10 600 м
[Sc]
+5.7 +4.0 89 +4 +4 1010.4 1005.7
03 21.03 В 3 10 км {дождь} 10/10 600 м
[Sc]
+4.7 +2.2 84 +1 +1 1011.3 1006.6 +4.7 0.0
06 21.03 СВ 1 20 км {дождь} 10/10 600 м
[Sc]
+3.2 +0.9 85 +2 +2 1012.0 1007.3 +3.0
09 21.03 СВ 2 20 км 10/10 600 м
[Sc]
+3.8 +0.8 81 +1 +1 1012.2 1007.5
12 21.03 СВ 3 10 км слабый дождь 10/0 300 м
[As op]
+3.9 +1.4 84 0 +1 1012.2 1007.5
15 21.03 С 2 10 км слабый дождь 10/10 300 м
[Frnb Ns]
+1.5 +0.2 91 -2 -2 1012.9 1008.1 +4.6 2
18 21.03 С 2 10 км слабый снег {дождь} 10/0 300 м
[As op]
+0.4 -0.5 94 -3 -3 1013.1 1008.3
21 21.03 СВ 2 10 км слабый снег 10/0 300 м
[As op]
+0.3 -0.7 93 -3 -3 1013.6 1008.8
00 22.03 С 3 10 км {снег} 10/10 600 м
[Sc]
+0.3 -1.7 86 -4 -4 1013.5 1008.7
03 22.03 С 4 10 км 10/10 600 м
[Sc]
+0.5 -1.8 85 -5 -5 1014.7 1009.9 +0.2 6 <0.5
06 22.03 СВ 5 20 км 10/10 600 м
[Sc]
+0.5 -2.4 81 -5 -5 1015.7 1010.9 -0.1
09 22.03 СВ 4 20 км 10/10 600 м
[Sc]
+1.3 -2.5 76 -4 -4 1016.4 1011.6
12 22.03 СВ 3 20 км 10/10 600 м
[Sc]
+1.9 -1.6 78 -2 -2 1017.2 1012.4
15 22.03 СВ 3 20 км 10/10 600 м
[Sc]
+1.2 -1.6 82 -3 -3 1018.8 1014.0 +2.1
18 22.03 В 3 10 км 10/10 600 м
[Sc]
+0.3 -1.4 88 -4 -4 1020.2 1015.4
21 22.03 СВ 2 10 км 10/10 600 м
[Sc]
-0.1 -2.6 83 -4 -4 1021.2 1016.4

 

Местоположение метеостанции Калач-на-Дону (Волгоградская область, Россия): широта 48.68 долгота 43.48 высота над уровнем моря 38 м.

В архиве по умолчанию представлена погода в Калаче-на-Дону за последнюю неделю. Архивные данные за месяц целиком и за предыдущие месяцы, начиная с января 2011 года, Вы можете получить, выбрав интересующий диапазон дат из раскрывающегося списка и нажав кнопку "Ввод!".

Внимание! Время в таблицах - всемирное. Для получения местного времени необходимо прибавить поправку, которая в Калаче-на-Дону равна 3 ч.

Смотрите также архив погоды в соседних городах и на ближайших метеорологических станциях:

Погода в Нижнем Чире (Волгоградская область, Россия) (47 км)
Погода в Волгограде (Волгоградская область, Россия) (66 км)
Погода в Волгограде город (Волгоградская область, Россия) (71 км)
Погода в Иловле (Волгоградская область, Россия) (79 км)
Погода в Серафимовиче (Волгоградская область, Россия) (113 км)
Погода в Котельниково (Волгоградская область, Россия) (119 км)
Погода в Малых Дербетах (Калмыкия, Россия) (123 км)
Погода в Морозовске (Ростовская область, Россия) (124 км)
Погода в Фролове (Волгоградская область, Россия) (125 км)
Погода в Боковской (Ростовская область, Россия) (135 км)

Пояснения к столбцам:

Ветер - указаны скорость ветра в м/с - средняя за 10 мин, порывы в срок и между сроками (в фигурных скобках) и направление, откуда дует ветер: С - северный, СВ - северо-восточный, В - восточный, ЮВ - юго-восточный, Ю - южный, ЮЗ - юго-западный, З - западный, СЗ - северо-западный.
Видимость - горизонтальная дальность видимости в метрах или километрах. При видимости от 1 до 10 км при отсутствии осадков обычно наблюдается дымка, при ухудшении видимости до 1 км и менее - туман. В сухую погоду видимость может ухудшаться дымом, пылью или мглою.
Явления - указаны атмосферные явления, наблюдавшиеся в срок или в последний час перед сроком; фигурными скобками обозначены явления, наблюдавшиеся между сроками (за 1-3 часа до срока); квадратными скобками обозначены град или гололедные отложения с указанием их диаметра в мм.
Облачность - указаны через наклонную черту общая и нижняя облачность в баллах и высота нижней границы облаков в метрах; квадратными скобками обозначены формы облаков: Ci - перистые, Cs - перисто-слоистые, Cc - перисто-кучевые, Ac - высококучевые, As - высокослоистые, Sc - слоисто-кучевые, Ns - слоисто-дождевые, Cu - кучевые, Cb - кучево-дождевые. Подробнее классификацию облаков см. в Атласе облаков (PDF).
T - Температура воздуха - температура, измеренная на высоте 2 м над землей.
Td - Температура точки росы - температура, при понижении до которой содержащийся в воздухе водяной пар достигнет насыщения.
f - Относительная влажность воздуха - влажноcть воздуха, измеренная на высоте 2 м над землей.
Te - Эффективная температура - температура, которую ощущает одетый по сезону человек в тени. Характеристика душности погоды. При расчете учитывается влияние влажности воздуха и скорости ветра на теплоощущения человека.
Tes - Эффективная температура на солнце - температура, которую ощущает человек, с поправкой на солнечный нагрев. Характеристика знойности погоды. Зависит от высоты солнца над горизонтом, облачности и скорости ветра. Ночью, в пасмурную погоду, а также при ветре 12 м/с и более поправка равна нулю.
P - Атмосферное давление - приведенное к уровню моря атмосферное давление.
Po - Атмосферное давление - измеренное на уровне метеостанции атмосферное давление.
Tmin - Минимальная температура - минимум температуры воздуха на высоте 2 м над землей.
Tmax - Максимальная температура - максимум температуры воздуха на высоте 2 м над землей.
R - Количество осадков - Количество выпавших осадков, мм. При наведении курсора мыши на число - период времени, за который выпало указанное количество осадков.
S - Снежный покров - Высота снежного покрова, см. При наведении курсора мыши на число - состояние снежного покрова и степень покрытия местности в баллах.